Location: La Brionne
(46.1728°N, 1.7849°E)
Time: 17:37:00
(UTC+00:00)

USA 215 - Pass Details

Date: 02 November 2021
Orbit: 1099 x 1109 km, 123.0° (Epoch: 20 November)

Event Time Altitude Azimuth Distance (km) Brightness Sun altitude
Exits shadow 19:38:30 46° 11° (N) 1,445 3.8 -31.8°
Maximum altitude 19:39:46 52° 336° (NNW) 1,341 3.8 -32.0°
Drops below altitude 10° 19:46:03 10° 262° (W) 2,961 6.2 -33.0°
Sets 19:48:36 0° 258° (WSW) 3,918 7.0 -33.5°
